RH
85 81 78 75 75 72 71 70 66 61 58 56 53 50 47 44 39 34 31 30 29 31 34 37 38 39 40 40 41 43 44 45 45 46 47 48 50 51 51 51 50 50 49 50 51 53 55 55 57 57 57 56 56 57 55 55 53 50 44 41 41 40 45 51 50 51 49 49 49 48 51 52 54 56 56 55 52 47 45 47 49 51 53 54 52
82 79 74 72 71 69 67 66 63 59 54 53 50 45 42 39 34 31 30 31 32 33 35 38 40 40 40 40 40 42 43 44 45 45 47 49 49 49 50 51 50 49 49 50 52 54 56 58 58 58 58 56 56 56 54 54 51 48 44 41 43 41 44 52 54 55 55 55 54 52 53 54 55 55 54 54 53 52 51 51 51 52 52 53 52
80 78 73 68 68 67 63 61 59 55 51 49 46 42 38 34 31 30 31 32 32 32 32 36 40 40 39 39 39 40 42 43 44 45 46 47 48 48 48 48 48 49 50 51 52 54 57 59 59 59 59 57 57 56 54 54 51 47 44 42 43 43 42 48 54 55 56 57 56 54 55 55 55 54 52 52 52 53 54 54 54 55 53 52 53
77 75 71 65 65 66 62 60 57 51 48 47 43 39 35 31 31 31 31 31 31 31 31 34 38 39 39 38 39 40 41 42 44 45 46 46 47 47 48 49 49 49 50 52 53 54 57 59 60 60 60 59 58 58 56 55 52 47 43 41 42 46 43 43 51 54 56 58 59 58 58 56 54 53 50 49 49 50 52 52 53 54 52 50 52
73 71 68 63 63 63 61 60 54 47 46 44 41 36 32 30 31 30 29 28 29 29 31 34 37 38 38 38 39 40 42 43 44 45 45 46 47 47 49 49 49 49 49 51 53 55 57 59 60 61 61 60 60 59 58 58 56 50 44 41 40 44 44 42 46 52 56 58 62 62 61 59 55 52 50 47 47 46 47 48 49 49 49 48 50
73 70 66 63 63 61 60 57 50 45 44 42 39 34 30 31 29 27 27 27 28 30 31 33 35 36 37 38 39 41 42 43 44 44 44 45 46 47 48 48 49 49 49 51 53 55 57 58 60 61 61 61 61 60 60 60 60 55 47 40 38 40 44 44 47 52 56 59 64 66 64 61 58 55 52 50 49 48 46 45 47 46 45 48 53
70 68 64 63 62 60 59 54 47 43 42 39 35 31 30 29 27 27 27 28 29 30 32 34 35 37 38 39 40 41 42 43 43 43 43 44 46 47 48 48 49 50 51 53 53 55 57 58 59 60 60 61 62 60 60 60 61 60 51 40 35 37 41 47 52 54 56 60 65 68 65 63 61 56 53 55 54 53 48 44 44 44 43 48 55
68 65 62 63 59 57 58 52 46 41 40 36 31 30 29 27 27 28 29 30 32 33 35 36 38 39 40 42 42 43 43 44 44 45 46 47 48 49 50 51 51 51 53 53 54 55 56 57 57 59 60 61 61 61 61 61 62 62 56 45 37 35 40 50 54 54 59 63 64 65 64 64 63 56 53 55 56 55 52 48 46 46 46 50 57
68 65 60 59 56 53 55 52 46 41 37 32 29 29 27 27 29 31 33 35 36 37 38 39 41 43 44 46 46 46 45 45 47 48 48 50 51 52 53 54 54 54 55 55 55 55 55 54 54 57 57 59 60 60 61 61 63 64 61 51 42 37 40 52 56 54 60 63 62 62 63 64 62 56 54 56 57 56 55 55 52 50 50 53 58
69 68 62 55 52 50 52 51 46 40 35 31 29 28 27 29 32 35 37 38 39 40 41 42 44 45 47 48 48 47 47 47 48 50 50 51 53 53 54 55 55 57 59 59 57 54 52 50 51 54 55 56 58 61 61 60 61 63 63 57 49 42 42 53 57 55 61 62 61 63 63 64 62 58 57 57 58 57 58 58 55 53 50 51 53
67 69 66 57 52 48 50 49 43 38 33 30 28 27 28 31 35 38 40 40 41 43 44 45 47 48 48 48 49 50 50 50 51 53 53 54 54 54 54 55 56 59 59 58 56 54 51 51 52 53 54 55 58 61 61 62 62 61 63 62 56 50 49 54 55 53 58 60 60 62 64 65 64 61 59 59 58 56 57 58 56 56 52 49 47
61 63 61 55 50 47 49 47 41 36 31 30 28 28 30 34 38 40 41 41 43 45 45 45 48 49 49 50 52 54 54 55 55 56 56 57 57 55 55 56 56 57 57 57 56 55 54 54 55 56 56 56 58 60 62 63 63 62 62 63 61 56 55 56 56 53 54 57 59 61 64 66 65 63 60 60 59 55 54 54 54 54 55 54 49
58 58 52 49 47 45 47 44 39 34 31 30 29 29 31 36 39 40 41 42 44 45 45 45 48 49 50 52 54 56 57 58 58 58 59 59 59 59 58 57 56 57 57 57 56 56 56 58 59 59 57 57 57 58 60 61 63 64 63 62 62 61 60 60 61 58 55 55 59 61 62 64 64 62 58 56 57 55 51 48 48 50 54 56 53
56 58 50 46 45 44 45 41 36 33 33 31 30 31 33 38 40 41 42 42 44 44 44 45 46 48 49 50 51 53 55 57 58 58 59 59 60 59 59 57 56 56 56 55 56 57 58 59 58 56 56 57 57 57 59 60 61 63 63 63 62 63 63 63 65 63 60 59 59 59 58 59 60 59 56 55 55 54 50 46 45 46 49 53 53
55 56 50 45 45 44 44 39 35 34 34 33 33 32 33 38 39 41 42 42 43 43 43 43 45 46 47 48 48 48 50 53 56 57 57 59 59 57 57 56 55 55 53 53 54 56 57 55 53 52 52 52 53 53 54 56 55 55 58 62 63 64 65 67 70 67 62 61 61 57 54 54 54 55 58 58 55 50 47 44 45 46 46 50 53
54 56 49 46 46 43 42 39 36 37 36 35 35 33 34 37 38 40 41 41 42 42 42 42 44 45 45 45 44 44 46 48 53 55 56 57 58 57 56 55 56 54 50 50 51 50 49 49 48 47 45 44 43 44 45 48 49 48 49 53 59 63 67 70 74 71 65 64 63 60 59 54 51 53 54 54 53 49 44 42 44 46 44 46 50
54 56 51 46 47 46 43 39 38 38 37 36 35 34 34 36 38 39 40 40 41 41 41 42 43 43 43 43 42 42 43 45 48 51 54 55 57 56 55 54 52 49 45 45 45 43 43 43 42 41 41 38 38 39 40 42 43 43 43 45 49 55 64 71 74 72 68 68 65 64 63 54 48 48 47 46 48 46 43 42 41 43 43 41 43
54 55 54 48 50 53 45 40 40 38 38 37 36 35 34 36 38 38 38 39 40 41 41 40 41 41 40 41 41 40 41 43 44 47 51 54 54 53 49 45 42 40 40 40 40 39 38 38 39 41 40 40 39 39 39 39 38 37 37 38 40 46 58 68 72 69 67 70 68 66 63 53 49 48 45 42 41 42 42 46 43 41 41 38 37
53 53 53 51 50 53 46 41 40 38 38 38 38 35 34 37 37 36 37 37 39 40 38 37 38 39 39 38 37 36 37 40 41 44 48 50 49 47 42 37 35 36 36 37 36 35 36 40 43 43 41 40 39 38 38 36 34 32 30 33 39 45 54 62 67 67 65 70 70 68 62 55 55 53 50 45 42 43 43 47 44 38 37 35 34
53 53 52 51 48 50 47 42 39 37 39 39 38 34 35 37 36 35 36 37 37 36 35 35 37 38 37 37 35 35 37 38 40 41 43 44 43 40 36 35 34 35 34 33 34 34 37 43 44 42 42 41 38 38 35 34 32 31 31 36 43 46 51 58 62 64 65 67 67 65 62 60 62 61 57 51 46 46 45 46 45 40 37 34 33
52 54 53 52 49 49 46 42 38 37 40 39 36 34 35 36 35 34 35 35 35 35 34 34 37 37 37 38 39 42 42 39 41 42 40 39 38 37 36 35 35 34 32 31 33 35 37 40 42 43 43 44 43 41 36 33 31 31 35 39 43 43 44 53 59 63 63 60 62 62 60 62 65 66 65 57 50 50 50 49 48 46 41 37 33
51 52 53 52 50 50 46 42 40 39 43 41 35 35 34 34 36 35 35 34 33 35 34 35 37 38 38 40 47 53 50 44 44 43 41 40 38 37 38 36 33 33 32 33 34 35 37 40 44 45 46 48 49 48 44 41 36 38 42 39 39 39 38 45 51 58 60 55 56 59 58 61 64 66 68 63 57 54 54 53 52 50 46 43 38
52 50 53 53 51 51 48 44 40 40 46 43 36 35 33 35 37 36 36 34 35 35 34 37 38 41 43 43 52 59 53 47 42 40 39 39 38 37 38 37 34 34 34 34 36 37 39 43 48 49 47 49 50 49 49 49 45 45 46 40 37 37 36 38 44 51 56 53 49 51 55 59 61 64 66 65 61 59 57 55 55 54 50 50 45
54 51 52 53 51 51 50 47 42 39 45 43 38 37 33 36 38 37 36 35 36 35 36 39 39 45 47 46 53 52 47 44 38 40 41 38 37 36 39 40 38 39 39 40 43 44 44 46 50 51 50 51 52 48 46 49 47 47 46 44 39 38 37 33 37 43 48 50 45 43 48 54 57 61 63 64 64 61 59 57 57 54 51 51 49
53 53 51 53 52 51 50 51 47 42 44 42 40 40 35 38 42 40 39 39 39 39 40 42 41 45 48 50 52 45 43 48 44 44 48 46 45 46 49 47 44 45 51 54 51 51 54 54 51 52 55 54 52 47 44 46 44 45 45 44 41 39 39 31 31 37 40 42 41 38 42 49 53 57 60 63 64 61 58 58 59 55 52 52 49
49 50 51 53 52 51 50 52 50 44 43 42 42 42 37 40 45 42 43 44 44 46 47 49 47 45 49 52 50 44 44 51 50 48 50 51 53 57 55 54 52 51 59 62 55 54 58 57 53 54 55 52 50 47 48 47 40 41 43 41 40 37 36 30 29 36 39 37 35 33 37 45 50 54 58 60 62 60 58 58 60 58 57 56 52
47 47 51 52 51 51 51 53 51 44 44 44 44 43 40 43 46 44 46 47 47 49 50 55 54 46 49 52 48 46 45 47 49 50 51 53 57 60 54 53 54 51 58 64 61 61 57 53 52 53 50 48 52 50 50 51 42 40 42 40 39 37 33 29 27 34 41 37 31 28 31 40 47 53 55 56 58 59 60 59 59 59 57 57 57
47 47 50 51 50 50 50 53 51 45 44 44 45 45 43 44 46 46 46 47 48 49 47 51 52 45 47 50 47 47 48 48 48 49 52 54 57 58 55 55 56 53 56 58 58 61 57 54 51 51 51 47 50 50 49 54 49 41 40 39 39 35 33 29 25 30 39 38 35 30 26 34 44 50 51 51 53 55 58 58 58 57 55 56 58
46 46 48 49 49 49 50 52 50 45 44 44 45 46 45 45 47 47 47 48 49 49 47 47 50 48 46 45 46 48 49 49 49 48 51 56 56 56 59 58 55 55 59 55 52 54 55 55 50 49 49 46 48 47 47 53 52 44 40 40 39 36 32 29 24 26 36 38 42 37 26 31 40 46 48 46 49 51 53 54 56 56 55 55 56
45 47 47 47 49 49 48 50 49 45 44 45 45 46 45 46 47 46 47 48 48 49 49 49 50 50 49 44 44 49 51 49 48 48 50 55 55 57 60 55 52 54 56 54 50 52 54 55 51 47 47 48 48 45 46 52 52 45 41 41 40 37 32 30 27 26 36 39 43 40 25 26 36 42 45 45 45 48 49 51 53 55 56 56 56
45 47 48 47 47 47 47 50 49 44 44 46 45 45 45 45 47 45 46 47 48 51 50 50 50 50 51 46 42 45 50 50 49 49 50 52 52 55 55 54 56 53 51 52 51 51 53 52 47 45 47 47 46 44 46 53 53 45 43 44 39 37 33 33 34 28 35 40 41 44 33 26 31 38 45 45 44 45 47 49 50 52 54 56 57
46 48 49 47 46 46 46 48 48 43 42 43 43 45 44 43 45 44 47 47 47 50 49 50 50 51 51 46 42 41 46 50 49 49 51 53 52 52 53 53 55 52 50 51 49 49 51 49 43 41 43 44 45 45 44 47 50 45 45 46 40 38 32 34 37 26 30 39 37 45 46 37 34 36 42 44 44 44 46 47 49 52 52 55 58
44 47 48 46 45 47 46 46 47 42 39 41 42 43 43 42 43 44 46 46 45 47 48 49 50 52 49 44 43 41 42 46 45 45 49 53 52 52 55 54 52 51 52 47 44 49 52 50 45 42 43 45 47 46 43 44 48 47 46 44 40 36 32 37 38 25 31 41 35 41 46 44 42 39 39 41 43 45 46 48 48 50 51 52 55
39 44 47 45 45 46 46 45 46 41 37 40 41 42 43 43 43 44 45 45 45 46 47 49 49 50 47 42 42 41 40 42 42 42 46 52 53 53 54 54 52 51 51 47 47 54 52 48 48 48 48 47 47 47 47 45 44 47 44 42 40 34 35 40 32 24 33 39 37 42 43 45 47 44 43 41 41 43 45 48 48 50 50 49 51
35 40 45 45 45 46 45 44 45 42 36 38 42 41 41 43 44 44 46 45 45 45 46 48 48 48 46 41 39 39 39 39 41 41 43 50 55 55 54 54 52 50 53 50 48 52 50 50 51 50 51 51 52 53 52 49 46 47 43 42 40 34 38 37 26 25 32 36 41 45 43 46 49 48 47 45 43 43 43 46 47 48 48 48 48
32 37 41 42 43 44 44 43 44 43 36 37 41 40 39 42 43 44 45 44 43 45 45 46 45 44 45 41 37 36 37 36 38 39 40 45 53 57 57 56 50 51 56 50 49 54 52 53 52 50 55 56 59 59 55 53 51 48 44 43 38 35 38 33 28 31 32 40 47 45 44 44 43 43 46 47 46 44 41 42 46 46 46 47 48
34 35 36 36 39 41 42 43 44 43 39 38 38 38 38 39 41 43 43 41 41 43 44 45 45 43 43 43 38 34 34 34 35 37 39 44 50 55 58 57 53 55 57 51 52 56 54 55 53 54 59 60 63 62 58 55 53 50 46 44 36 35 36 30 33 36 34 42 46 45 46 44 39 39 43 46 47 45 39 36 40 44 46 47 47
36 35 35 34 36 39 39 41 43 43 42 41 38 36 37 36 38 41 42 40 41 42 43 43 44 44 42 42 40 35 33 33 35 36 37 43 48 52 55 55 55 56 54 53 53 52 53 55 57 57 58 62 65 61 56 53 49 49 50 48 38 34 34 27 31 37 37 41 42 44 46 44 43 41 44 46 45 45 41 37 38 40 41 42 42
35 36 37 35 35 37 37 38 40 41 40 41 39 38 39 38 38 40 41 40 39 41 43 43 44 45 43 41 39 35 34 34 35 36 37 41 46 51 52 51 53 53 51 55 57 56 53 52 56 56 52 58 61 57 53 49 47 48 51 52 44 39 36 29 32 39 39 39 39 43 43 41 40 39 42 44 44 45 42 43 46 46 45 43 41
35 37 37 34 34 37 36 35 37 38 38 38 37 38 40 40 39 40 40 39 37 39 41 42 44 44 43 42 38 34 35 35 34 36 38 40 45 51 51 49 51 53 52 52 57 58 52 49 52 51 49 51 52 50 47 46 46 44 46 51 50 43 35 30 38 46 45 41 41 44 44 42 39 37 39 40 43 46 43 44 48 49 49 47 44
34 35 35 34 33 35 37 35 35 35 36 37 36 36 37 38 38 37 37 36 35 38 39 40 43 43 42 42 37 33 34 35 35 36 38 40 43 50 52 49 51 55 53 49 52 53 50 52 51 48 49 48 49 48 43 43 45 39 40 46 47 43 35 31 38 47 49 46 48 50 48 47 42 35 36 36 36 41 44 45 45 47 46 46 48
34 35 35 34 33 34 36 36 35 34 34 34 34 34 34 34 34 33 33 34 33 36 38 38 41 42 41 41 36 32 33 34 35 36 38 41 42 46 48 47 50 55 53 49 49 47 48 52 51 49 48 47 48 44 39 43 43 38 37 38 41 42 38 36 39 47 48 45 50 54 50 50 45 36 36 36 32 35 43 43 40 43 42 44 49
35 36 36 35 33 33 35 36 35 34 34 33 32 33 33 33 33 32 32 34 34 35 36 37 39 41 41 40 34 30 33 34 34 35 37 40 42 44 47 48 49 52 56 55 51 47 49 55 54 51 48 49 48 39 35 40 39 37 37 36 36 36 36 39 43 50 51 46 49 50 45 44 40 35 34 33 33 35 40 38 34 37 38 41 46
34 36 35 33 32 32 35 36 34 33 33 32 31 31 33 34 34 33 32 34 35 35 36 36 37 38 38 38 31 27 31 33 33 34 36 39 41 43 45 49 49 49 54 55 51 49 51 55 56 52 49 52 51 42 37 39 38 39 42 39 37 35 35 38 43 52 54 50 52 50 45 40 34 33 31 28 33 37 38 36 33 32 35 37 41
32 34 35 33 31 30 31 33 32 31 32 32 31 30 32 33 33 34 33 33 34 35 36 35 35 35 35 36 32 28 30 30 29 31 35 37 39 41 42 47 49 48 51 53 53 55 55 56 55 49 48 51 50 44 39 40 41 41 42 40 41 46 43 36 40 48 50 50 54 54 51 48 39 35 34 30 33 38 39 36 32 32 35 36 39
31 33 34 32 31 29 28 29 29 30 31 31 31 31 30 29 30 30 30 30 31 33 34 33 34 34 34 36 33 30 29 28 27 29 33 36 36 37 39 43 48 50 51 52 55 59 59 57 53 48 49 49 47 44 40 41 41 39 41 41 43 48 43 40 44 45 44 46 51 52 51 52 46 41 42 40 38 39 42 42 40 42 44 44 43
30 33 33 32 30 28 27 26 26 28 29 29 29 29 27 26 27 25 23 24 27 31 31 30 32 32 32 34 34 32 29 26 28 27 30 34 35 36 36 39 43 47 49 49 51 59 61 58 52 48 49 46 43 43 41 41 39 36 40 41 42 44 40 45 49 44 43 44 46 47 48 50 49 47 48 48 48 46 47 49 50 52 53 51 49
30 31 32 32 29 27 24 22 24 25 25 25 26 27 24 23 25 23 20 22 25 28 27 26 29 32 32 31 32 34 30 25 28 28 28 31 34 35 36 38 38 40 45 46 50 58 62 59 52 47 46 42 40 41 41 41 39 38 40 40 40 42 42 45 47 46 48 48 46 47 48 48 47 48 48 50 55 52 49 53 54 56 57 55 53
29 30 31 31 28 25 23 21 21 22 21 22 24 24 22 21 24 22 18 21 25 27 27 26 28 30 33 32 31 34 32 25 25 26 27 29 33 34 35 38 37 36 39 44 50 56 57 56 51 46 43 40 39 41 40 41 42 42 42 40 41 41 41 42 44 45 48 51 51 49 49 47 44 46 45 48 54 50 48 53 53 54 56 55 55
29 29 30 30 29 25 22 20 19 19 19 19 20 21 19 20 24 21 16 18 22 25 27 28 27 27 30 32 31 31 32 28 25 26 26 26 29 33 35 38 39 36 36 42 48 52 54 54 50 46 44 40 39 42 40 38 40 42 41 42 43 43 42 42 42 43 45 48 51 51 52 47 44 48 46 45 48 48 49 52 52 52 52 52 53
29 29 29 29 29 25 20 19 18 18 18 18 18 18 17 19 20 18 15 16 18 21 24 28 29 26 24 26 26 26 28 30 30 29 27 25 28 31 34 38 39 37 36 39 44 48 52 53 48 46 46 40 39 43 41 36 37 42 43 43 44 44 44 42 41 42 43 44 46 50 54 51 49 51 48 44 45 45 47 49 50 49 47 49 50